Wind_Speed
15 14 14 13 12 12 12 11 11 11 11 11 12 13 13 13 13 12 12 13 13 12 12 12 12 12 12 12 13 13 13 13 13 14 14 14 14 13 13 13 13 13 13 12 11 11 11 11 11 11 11 11 11 11 10 11 11 11 10 10 10 10 11 13 13 13 12 11 9 7 5 4 3 2 1 1 1 2 3 4 5 6 6 7 8
15 14 13 13 12 13 13 12 12 11 11 12 12 13 13 13 13 12 12 12 13 13 12 12 12 12 11 11 12 13 13 12 13 14 14 14 14 13 13 13 12 12 12 12 11 11 10 10 10 10 10 10 9 9 9 9 9 10 10 10 9 9 9 10 11 12 11 10 9 7 5 4 3 1 0 1 2 3 4 5 6 7 7 8 9
15 15 14 13 12 13 13 12 11 11 11 12 12 13 13 13 13 13 12 12 13 13 13 12 12 13 12 12 11 12 12 12 12 13 13 13 12 12 12 12 12 11 11 12 11 11 10 9 9 9 9 8 7 7 7 8 9 9 9 10 9 9 9 9 9 9 9 9 9 8 6 5 4 3 2 2 3 3 4 5 6 6 7 8 9
16 16 15 13 13 13 14 14 13 13 12 12 12 13 13 13 13 13 13 12 12 13 13 13 13 13 13 13 12 12 11 12 12 12 12 12 11 11 11 11 11 11 11 11 11 10 10 9 8 8 8 7 6 6 6 7 8 9 9 10 9 8 8 9 8 7 7 7 7 7 6 5 4 3 2 2 2 3 4 5 6 7 8 9 9
17 17 17 15 15 15 15 15 14 14 13 13 12 13 13 13 13 13 13 12 12 12 13 13 13 13 13 13 13 12 12 11 11 11 12 11 11 10 10 10 10 10 10 10 10 9 9 8 8 7 7 7 7 6 6 7 8 8 9 9 9 8 7 7 8 7 5 4 4 4 4 4 3 2 1 2 3 4 4 5 6 7 8 9 9
18 18 18 17 16 16 16 15 15 14 13 13 12 12 12 13 13 13 13 12 12 12 13 13 13 13 12 12 12 12 12 12 12 12 12 11 11 10 10 9 9 9 9 9 9 8 8 7 7 6 6 6 6 6 6 6 7 7 7 8 8 7 6 6 7 6 5 4 4 3 3 2 2 1 1 2 3 4 5 5 6 7 8 8 9
18 17 17 18 18 17 17 16 15 15 14 14 13 13 13 13 13 13 13 13 12 13 13 14 14 14 13 13 12 12 11 12 12 12 12 11 11 10 10 10 9 9 9 9 8 8 8 7 7 6 6 6 6 6 6 6 6 6 6 6 6 6 6 6 6 6 5 4 4 3 2 1 1 1 2 3 4 5 6 6 7 7 8 8 9
18 17 17 18 19 18 18 18 17 16 16 16 15 14 14 13 13 13 12 12 12 12 13 13 13 13 14 13 13 13 12 12 12 12 11 11 10 10 10 10 10 9 9 9 8 7 7 7 6 6 5 5 5 5 5 5 5 5 5 5 5 6 6 6 5 5 4 3 3 2 1 0 1 1 2 3 4 5 6 7 7 8 8 8 8
20 19 19 19 20 19 18 19 18 18 17 17 16 15 14 14 14 13 12 12 12 12 12 12 12 12 12 13 13 13 13 12 12 12 11 11 10 9 9 9 9 9 8 8 8 7 7 7 6 6 5 5 4 4 5 5 5 5 5 5 5 5 6 5 5 3 2 2 1 0 1 1 2 2 3 4 5 5 6 7 7 8 8 8 8
21 20 20 20 20 20 19 19 19 18 17 17 16 15 14 14 14 14 13 12 12 12 11 11 11 11 11 11 11 11 11 11 11 11 11 11 10 10 9 9 9 9 8 7 7 7 7 6 6 6 5 5 5 5 5 5 5 5 5 4 5 5 5 5 4 3 2 1 1 1 2 2 3 3 4 4 5 6 7 7 7 7 8 8 9
22 21 20 20 20 20 20 19 19 18 17 17 17 16 15 14 14 14 14 14 12 12 12 12 12 11 11 11 10 10 10 10 9 10 10 10 10 10 9 9 8 9 8 7 6 6 6 6 6 5 5 5 5 5 5 5 5 4 4 4 4 5 5 4 4 3 3 2 2 2 3 3 4 4 4 5 5 6 7 7 7 7 8 8 8
23 22 21 20 18 19 20 19 18 18 18 17 17 17 16 15 15 15 16 16 14 13 12 12 13 12 12 11 10 10 10 9 9 9 9 10 10 10 9 9 8 8 8 7 7 6 6 6 5 5 4 4 4 4 5 5 4 4 4 4 4 4 4 4 3 3 3 3 3 3 4 4 5 5 5 5 6 6 7 7 7 7 7 7 7
24 24 22 20 18 19 20 19 19 19 19 18 18 17 17 16 16 16 16 16 16 15 14 13 13 12 12 11 10 10 10 10 9 9 9 9 9 9 9 9 8 8 7 7 7 7 7 6 6 5 4 4 4 4 4 4 4 4 4 4 4 3 3 3 3 3 3 3 4 4 5 5 5 5 5 6 6 6 6 6 7 6 6 7 7
26 25 23 21 20 20 20 21 21 21 20 20 18 18 18 17 17 16 16 15 15 15 15 14 13 13 12 11 11 10 10 10 10 10 9 8 8 8 8 8 8 8 7 7 7 7 7 7 7 6 6 5 5 5 4 4 4 4 4 4 4 3 3 3 4 4 4 4 4 4 5 5 5 5 6 6 5 5 5 5 5 5 5 5 5
28 26 24 23 23 23 22 22 23 23 22 21 20 19 19 18 17 16 16 16 16 16 16 15 14 13 13 12 11 11 10 10 10 10 10 9 8 8 7 7 7 7 7 8 8 7 7 7 7 7 7 7 6 6 6 5 5 5 4 4 4 4 4 4 4 4 5 5 5 5 5 6 6 6 6 6 6 5 5 5 5 4 4 3 3
31 28 26 25 26 26 24 24 24 24 23 23 22 21 20 19 18 17 17 17 17 17 17 16 16 15 14 13 12 12 11 11 11 10 9 9 8 8 7 7 7 6 6 7 8 7 7 7 6 7 7 7 7 7 7 6 6 6 5 5 5 5 5 5 5 5 5 6 6 6 6 6 6 6 7 7 6 5 4 4 5 4 4 3 2
33 30 28 27 27 27 27 26 25 24 24 24 24 23 22 21 20 19 18 18 17 17 18 18 17 16 15 15 14 14 13 12 11 10 9 9 8 7 7 7 7 6 6 6 7 7 7 7 6 7 7 7 7 7 7 7 6 6 6 6 6 6 6 6 6 6 7 7 7 8 8 8 7 7 7 7 6 6 5 4 4 4 4 4 3
35 33 31 30 29 29 29 28 26 25 25 26 26 25 24 23 23 22 21 20 19 19 19 19 19 18 17 16 16 15 14 13 12 12 11 10 9 8 7 7 7 7 7 7 7 7 7 6 6 6 7 6 6 7 7 6 6 6 6 6 6 6 6 7 7 7 7 8 8 9 9 9 8 8 8 8 7 6 6 5 5 4 4 4 4
36 36 34 32 31 30 30 30 28 27 27 27 27 26 26 25 25 24 23 22 21 20 20 20 20 19 18 17 17 16 15 14 14 13 13 12 10 9 8 8 8 8 8 8 8 7 7 7 6 6 6 6 7 7 7 6 6 6 6 6 6 6 6 7 7 7 8 8 9 9 9 9 9 9 8 8 8 7 7 7 7 6 6 6 6
36 36 34 33 32 31 31 31 30 30 29 28 27 27 26 26 26 25 25 24 22 21 21 20 20 20 19 18 17 17 16 15 15 14 14 13 12 11 10 10 10 9 9 9 9 8 8 8 8 7 7 7 7 7 7 7 7 6 6 7 7 7 7 7 7 8 8 9 9 9 9 9 9 9 9 9 8 8 7 8 8 8 8 8 7
35 34 34 33 33 32 32 32 32 32 31 30 29 28 27 27 26 26 26 25 24 23 22 22 21 20 20 19 18 18 17 17 16 16 15 14 14 14 13 12 12 11 10 10 9 9 9 9 9 8 8 8 8 8 8 8 8 7 7 8 8 7 7 7 8 9 9 9 9 9 9 9 8 8 8 8 8 8 8 8 8 8 9 9 9
33 33 33 33 33 32 33 32 32 32 31 30 29 29 28 27 27 27 26 25 25 24 24 23 22 22 21 21 20 19 18 18 18 17 16 16 16 15 15 15 14 13 12 12 11 11 10 11 10 10 10 10 10 9 9 9 9 9 9 9 9 9 8 9 9 10 10 9 9 9 9 9 8 8 8 8 8 8 8 7 8 7 8 8 8
34 33 33 32 33 33 33 33 32 31 30 29 29 28 28 27 27 27 26 26 25 24 24 24 23 23 23 22 21 20 20 19 19 19 18 18 18 17 16 16 15 14 14 13 13 12 12 12 12 12 12 12 11 11 11 10 10 11 11 11 10 10 10 10 10 10 10 10 9 10 10 10 9 8 8 8 8 8 8 7 7 7 8 8 8
36 35 34 34 34 33 33 32 31 31 30 28 28 27 27 27 26 26 26 26 25 25 24 24 24 24 24 23 23 22 21 21 21 20 20 19 19 18 18 18 17 16 15 15 14 14 14 14 13 13 13 13 13 13 13 12 12 12 12 12 12 11 11 11 11 11 11 10 10 10 10 10 10 9 9 9 9 9 8 8 8 9 9 10 10
38 37 36 35 33 32 31 31 30 30 29 27 27 26 26 26 25 26 26 26 26 25 25 25 25 25 24 24 24 23 23 23 23 22 21 20 20 20 19 19 18 17 16 16 15 15 14 14 14 13 13 14 14 14 15 14 14 14 14 13 13 13 13 13 12 12 12 11 11 11 11 12 11 11 10 11 11 10 10 10 10 10 10 10 11
39 39 37 35 34 32 31 31 30 29 28 27 27 27 27 27 27 26 26 26 27 27 27 26 26 26 26 25 26 26 25 25 25 24 23 22 21 21 20 20 19 18 18 18 17 16 16 15 15 14 14 14 14 15 15 15 15 14 14 13 13 13 14 14 14 14 13 13 13 13 13 13 13 12 12 12 12 12 12 11 12 12 12 12 12
40 40 39 37 35 34 33 32 31 30 29 28 27 27 27 27 27 28 28 28 28 28 27 28 28 28 27 27 27 28 28 27 27 26 25 23 22 22 22 21 21 20 20 20 20 20 19 18 17 16 16 16 16 16 16 16 15 15 14 13 13 13 14 14 15 15 15 15 15 15 15 14 14 14 14 14 14 14 14 13 13 14 14 14 14
42 41 40 38 37 36 34 33 32 31 30 29 28 27 27 27 27 28 29 29 30 30 29 28 29 29 29 29 30 30 31 30 29 28 26 25 24 24 24 24 23 23 23 23 23 23 22 22 21 20 19 19 19 19 19 19 18 17 15 14 13 13 14 15 15 15 16 16 16 16 16 15 15 15 15 15 15 16 16 16 16 16 17 16 16
43 43 42 40 38 36 34 33 32 31 30 29 28 27 26 25 26 27 28 28 29 29 29 28 28 28 29 30 31 31 32 32 32 30 29 27 27 27 27 26 26 25 25 25 25 25 24 24 23 23 22 21 21 21 22 21 21 20 19 17 16 16 16 16 16 16 16 16 16 16 16 15 15 15 15 15 15 16 16 17 17 18 18 19 19
47 45 44 41 38 37 35 33 32 31 31 30 29 29 27 26 26 26 27 28 28 28 28 28 27 27 28 29 30 30 31 32 33 32 31 30 29 29 28 28 28 27 27 26 26 25 25 25 25 24 23 23 23 23 23 23 22 22 21 20 19 18 18 18 18 17 17 17 17 16 16 16 15 15 15 15 16 16 16 17 17 17 18 19 20
46 43 41 39 37 36 36 35 34 32 31 31 30 29 29 28 28 28 29 29 30 30 30 29 29 28 28 28 28 27 28 29 30 31 31 31 30 30 30 29 29 28 27 26 25 25 25 25 25 25 24 24 24 24 24 24 23 22 21 21 20 20 20 20 20 19 19 19 18 18 17 17 16 16 16 16 16 16 16 17 17 18 18 19 20
34 34 35 36 38 38 37 36 36 35 34 32 32 32 31 32 32 33 33 33 33 33 33 32 31 29 29 29 29 27 26 27 27 28 30 31 31 30 30 29 28 28 27 26 25 26 27 27 26 26 25 24 23 23 23 23 23 22 22 21 21 20 20 21 21 21 20 20 19 18 18 17 16 17 16 16 16 17 18 18 19 19 20 20 21
22 24 25 27 32 38 41 41 39 37 36 36 35 35 34 35 35 35 35 36 37 37 36 35 33 30 31 33 34 30 27 27 27 26 26 28 29 29 29 28 28 28 27 25 25 26 28 28 27 26 25 23 22 22 22 21 21 21 21 21 21 20 20 20 21 21 21 21 20 19 18 17 17 17 16 17 20 22 22 22 21 22 22 22 23
15 17 19 19 22 28 36 42 42 40 39 38 37 37 36 35 34 33 34 36 38 39 39 38 37 35 34 36 38 35 32 31 30 28 27 26 26 27 29 29 29 29 28 26 26 27 28 28 26 25 23 22 21 21 21 21 20 20 20 20 20 20 20 21 22 22 23 22 22 21 20 19 20 19 19 20 23 25 25 25 25 26 26 26 26
11 13 15 15 15 17 23 29 32 33 33 33 33 33 32 31 31 31 32 33 34 37 41 42 41 40 39 39 38 37 37 37 35 33 32 29 27 27 29 29 28 28 28 28 29 29 28 26 24 22 21 21 21 21 21 21 20 20 20 20 20 21 21 22 22 23 24 24 24 24 23 24 24 24 24 25 26 27 27 28 29 30 30 30 29
13 12 12 12 13 14 15 17 19 20 21 22 22 23 23 23 24 26 28 31 33 35 39 43 45 44 44 43 41 40 41 41 39 37 36 34 31 30 30 28 27 28 29 30 29 28 27 25 23 22 23 23 23 22 22 21 21 21 22 22 22 22 22 22 23 24 25 26 27 27 27 27 26 27 28 28 28 29 30 30 32 32 32 33 33
17 15 13 12 12 13 14 13 13 14 14 15 15 16 16 16 17 18 21 25 31 35 38 42 45 48 50 48 44 42 43 42 39 39 38 37 35 34 31 29 30 31 31 31 30 29 28 26 25 25 25 25 25 24 24 24 24 25 25 25 24 24 24 24 25 25 27 28 29 30 30 29 28 29 30 30 30 31 33 34 36 36 35 34 34
17 14 13 13 13 13 13 12 12 12 13 14 14 14 14 13 12 13 14 16 21 28 34 38 42 46 52 52 48 45 46 46 43 41 41 38 35 34 33 33 34 35 34 33 32 31 30 29 28 28 28 28 28 28 28 28 28 29 30 30 30 29 28 28 27 28 29 30 31 31 31 31 31 31 32 33 34 34 36 38 40 40 39 38 37
14 13 12 13 13 13 13 14 13 14 14 14 14 13 13 13 12 12 11 11 12 16 22 29 34 38 44 49 50 47 45 45 45 43 41 39 37 35 34 34 36 37 36 34 33 32 32 32 31 30 30 30 30 30 31 31 31 31 32 33 33 33 33 32 31 31 31 32 33 34 34 34 33 32 33 35 36 35 35 36 38 39 41 42 42
12 11 12 13 13 13 13 14 14 16 17 17 16 15 13 13 13 13 12 12 12 14 16 19 25 31 35 39 43 44 42 42 42 40 37 36 37 37 36 35 36 38 37 35 33 32 32 32 31 29 29 28 28 28 28 28 28 29 29 29 31 33 34 34 34 34 34 35 36 37 37 36 35 35 35 36 38 37 35 34 36 38 41 43 42
13 12 13 14 14 14 16 16 14 14 15 15 15 15 14 12 12 13 12 10 9 11 12 12 14 21 25 27 28 30 31 33 35 36 36 36 36 37 36 35 35 36 35 33 32 30 29 28 27 26 26 26 26 26 26 26 26 26 26 26 27 28 30 31 32 33 35 37 38 39 39 38 37 37 37 37 39 40 39 38 38 38 42 45 42
16 15 15 16 16 15 17 18 17 16 16 16 16 17 18 17 16 15 15 14 12 12 12 11 11 14 16 16 15 14 15 17 19 24 29 32 31 30 31 31 31 30 29 28 28 27 27 26 25 24 25 26 27 26 25 25 26 26 25 25 25 26 26 27 28 29 31 33 35 37 38 39 39 40 40 40 41 42 41 40 38 37 39 40 37
18 17 17 18 18 17 17 18 17 17 19 21 21 22 22 23 21 18 19 19 16 14 13 12 13 14 14 15 14 12 13 14 15 17 20 22 23 24 25 26 27 27 27 27 27 27 27 27 26 25 26 27 27 27 26 26 25 26 26 27 27 28 28 28 27 28 28 29 31 33 34 35 36 38 39 40 41 40 39 37 36 35 34 31 27
18 18 18 18 18 20 21 21 20 18 17 18 19 19 21 23 23 21 20 18 16 16 17 16 15 15 15 16 14 13 13 15 15 16 18 20 22 24 25 25 26 26 26 26 26 26 26 26 26 26 26 27 27 27 27 26 26 26 27 28 29 29 29 29 29 29 29 29 29 30 30 30 31 33 35 35 35 36 35 34 32 31 28 26 23
15 15 15 15 16 19 21 22 22 22 21 20 18 18 20 21 22 21 20 19 19 19 20 19 18 16 16 16 15 13 13 15 16 16 17 18 21 23 24 25 25 25 25 25 25 26 26 26 27 27 28 28 28 28 29 29 29 30 30 30 31 31 31 32 31 31 30 30 30 31 31 31 32 34 35 35 35 35 35 33 30 27 25 26 25
14 14 13 13 14 17 19 20 20 20 19 18 16 16 17 20 22 22 21 21 21 21 21 19 18 17 17 18 17 16 16 17 18 18 18 18 20 22 23 24 24 24 24 25 26 27 27 28 29 29 30 31 31 32 33 33 33 33 33 33 33 33 33 33 33 33 32 32 32 33 33 34 35 36 36 35 35 34 34 34 31 27 25 26 26
18 17 16 15 15 16 17 19 20 20 19 18 15 13 13 16 18 20 21 21 22 23 23 21 19 18 18 18 18 18 18 19 20 21 21 21 22 23 25 25 26 26 27 27 28 28 29 30 30 31 32 33 34 35 36 36 36 36 35 35 35 35 35 35 34 34 34 34 35 35 35 36 36 37 37 36 36 35 35 35 34 33 34 36 38
22 21 20 19 18 17 18 19 20 20 20 20 18 15 14 15 16 17 18 19 20 21 23 22 21 20 20 20 21 21 22 22 23 24 25 25 26 27 28 29 29 30 30 31 31 32 32 33 34 35 36 36 37 37 38 38 38 38 37 37 37 37 36 36 36 36 36 36 36 36 37 37 37 37 38 38 39 38 38 38 38 39 41 44 46
25 25 23 22 21 20 20 20 21 22 21 21 21 20 19 19 19 20 21 21 22 22 23 23 23 23 23 24 24 25 25 26 27 27 28 29 30 31 32 32 33 33 34 34 35 35 36 37 38 38 39 40 40 40 40 40 40 40 39 39 39 39 39 38 38 38 38 38 38 38 38 39 39 39 39 39 40 41 41 42 42 43 44 46 47
26 26 26 24 23 21 21 21 21 22 23 22 22 22 22 21 22 22 23 23 23 24 24 24 24 24 24 25 26 26 27 28 29 30 31 32 33 33 34 35 35 36 37 37 38 39 39 40 41 41 42 42 43 43 43 43 43 43 43 43 43 43 43 43 43 43 43 43 42 42 42 42 42 42 42 42 42 43 43 44 44 46 47 48 48
27 27 26 25 24 23 22 22 22 23 23 24 23 23 24 23 23 23 24 24 24 25 25 26 26 26 27 27 28 28 29 30 31 32 33 34 35 36 36 37 38 38 39 40 40 41 42 42 43 44 45 45 45 45 46 46 46 47 47 47 47 48 48 48 48 49 48 48 48 47 47 47 46 46 46 46 46 46 46 47 47 48 49 50 50
Wind_Direction
179 177 169 168 173 174 174 176 173 168 165 158 150 148 145 143 141 140 139 137 135 134 135 135 133 132 133 131 127 124 123 124 126 128 130 132 134 137 141 143 146 148 149 152 155 153 151 151 150 146 142 139 139 138 134 131 130 131 133 132 134 139 142 143 143 141 139 138 137 140 143 142 139 130 104 14 328 335 344 346 351 352 352 354 355
179 177 172 172 175 177 176 177 176 171 166 162 155 152 149 144 143 143 143 142 139 138 139 139 137 135 133 131 128 126 127 128 129 130 131 133 136 140 143 146 149 152 154 156 158 158 157 157 156 153 150 148 147 141 133 127 126 129 134 135 135 138 143 146 147 146 145 144 143 147 153 156 159 169 257 309 316 326 335 340 345 346 349 352 355
180 176 172 174 179 180 178 176 176 174 169 165 159 154 151 147 146 146 146 145 143 142 143 144 143 140 137 134 133 133 133 132 132 132 132 131 135 141 145 146 149 152 156 159 160 161 162 162 162 160 158 155 153 145 133 127 125 129 136 139 140 141 144 147 150 150 150 151 150 154 164 169 170 184 221 267 293 305 317 330 336 339 346 353 359
182 174 169 174 181 183 182 177 174 177 173 168 164 159 154 151 150 148 147 148 146 145 147 149 149 147 143 141 141 140 138 136 135 134 132 131 134 141 145 147 149 151 156 160 160 162 164 165 166 167 164 160 157 150 138 133 133 135 141 146 147 147 146 146 145 146 150 154 153 156 164 170 173 180 203 244 278 296 309 324 331 337 345 351 358
183 173 168 173 181 183 184 180 176 177 174 169 166 162 158 154 153 150 148 149 147 146 148 151 152 150 147 146 144 143 141 138 137 134 132 133 135 139 142 145 148 150 153 156 157 159 161 163 165 168 168 164 163 159 150 146 144 143 146 151 153 151 147 142 137 135 141 148 150 158 166 170 177 184 206 262 292 310 317 321 327 333 342 349 355
187 177 169 173 179 182 185 184 179 176 173 171 168 164 162 160 156 153 150 150 148 145 148 150 152 151 149 147 145 144 142 140 139 137 135 136 137 138 139 140 143 145 147 148 150 152 154 158 164 171 172 169 168 165 158 155 154 151 151 155 158 155 150 147 139 135 139 145 151 167 184 193 206 236 285 298 311 324 325 325 328 334 343 353 360
190 182 172 172 178 181 184 186 181 177 173 172 172 168 166 165 160 156 152 151 149 147 148 151 152 152 152 150 149 149 148 145 143 139 137 139 141 140 139 138 139 140 141 142 145 148 151 155 163 172 175 173 172 170 162 159 160 160 158 160 163 163 160 157 150 147 150 160 169 180 193 206 237 285 306 315 326 333 334 337 341 344 351 359 4
191 184 177 176 180 181 183 186 182 179 176 173 175 172 168 168 165 160 156 153 150 149 149 150 151 153 153 152 153 154 153 150 146 143 142 143 144 142 141 139 137 136 137 139 143 147 150 152 159 168 173 172 170 166 160 157 163 170 170 171 171 171 171 168 167 166 163 169 177 180 176 101 21 337 333 337 342 342 341 346 351 355 357 0 3
195 186 182 183 183 181 183 185 183 182 180 176 175 174 170 169 168 164 160 157 155 153 151 150 151 151 151 152 155 157 156 153 150 149 149 150 150 148 146 143 139 136 136 138 141 144 148 149 154 158 161 163 158 155 155 159 171 179 179 181 177 175 179 182 185 188 184 184 183 24 30 41 25 2 353 351 351 346 344 350 354 356 359 0 5
200 191 188 190 187 182 182 185 186 185 183 179 176 177 175 173 173 169 166 165 163 161 159 156 155 153 152 154 156 158 157 155 155 155 156 158 158 158 157 154 148 144 143 144 142 142 144 144 147 151 151 150 149 150 154 161 172 180 181 179 175 175 184 194 200 214 229 245 293 325 346 7 4 351 348 349 348 344 344 346 345 350 2 7 9
201 197 194 195 192 185 183 186 187 184 183 183 181 180 181 179 177 174 172 171 170 170 169 166 162 159 157 156 156 156 155 155 158 162 165 166 167 166 165 165 161 155 153 155 151 145 144 142 144 148 146 142 142 143 146 153 163 172 175 174 173 178 192 206 216 233 255 276 296 314 328 337 340 337 337 337 337 339 345 346 341 348 4 12 13
198 197 198 198 195 190 188 187 187 183 183 186 186 184 184 185 184 181 177 174 174 176 177 175 172 169 166 163 161 159 157 157 161 169 174 175 175 172 169 171 173 167 163 165 162 156 154 153 150 150 147 144 146 146 145 150 159 167 172 175 180 187 200 217 231 246 262 283 306 320 325 327 331 334 335 334 332 335 345 347 347 355 6 13 15
198 197 198 196 195 195 193 189 188 187 186 187 189 188 186 187 189 187 183 178 176 177 179 181 179 176 175 174 171 168 166 166 168 173 178 180 180 177 173 172 174 173 173 174 173 168 167 167 166 165 166 163 160 161 160 162 169 177 182 188 197 210 224 238 251 263 273 290 307 318 322 324 327 330 332 333 332 334 340 342 344 353 5 9 11
201 198 196 194 196 199 196 192 191 192 191 190 192 191 189 191 193 190 187 184 181 180 182 185 184 181 182 184 181 178 177 175 173 176 178 180 180 181 179 175 172 173 174 177 179 178 178 178 177 177 182 184 181 182 185 188 193 200 205 209 216 228 243 257 265 274 284 291 298 306 308 311 315 320 323 325 330 334 336 336 337 345 359 10 9
202 199 195 194 197 201 199 196 195 195 195 194 195 196 195 196 196 193 192 191 188 186 187 189 190 186 186 190 190 187 186 183 182 182 181 182 184 185 184 180 179 179 178 179 180 182 185 186 185 185 189 192 194 196 200 206 211 215 222 230 236 242 250 259 266 275 285 291 297 303 303 304 309 312 313 315 321 325 327 329 335 344 357 9 13
201 200 197 196 197 201 202 200 199 198 198 198 198 200 199 200 200 199 199 198 194 192 192 194 196 194 192 195 197 196 195 191 189 189 187 189 191 191 189 187 187 186 187 188 185 182 184 186 187 189 192 195 199 201 205 211 218 223 228 234 243 251 259 267 274 280 285 291 296 300 300 301 304 305 306 306 309 314 320 326 333 341 345 346 351
199 199 199 198 199 201 203 204 203 201 201 201 202 203 202 202 202 202 202 203 202 199 197 199 201 200 198 199 202 202 201 198 194 194 196 198 200 199 196 195 193 191 192 197 193 186 186 188 190 194 196 197 201 205 208 215 222 228 233 239 244 253 263 272 278 283 286 291 294 293 292 292 294 294 294 296 298 304 311 319 328 336 338 337 336
199 198 199 199 201 201 203 205 205 204 204 204 205 207 206 204 204 204 204 205 206 204 202 203 205 205 203 203 205 206 205 203 201 200 202 205 206 206 202 200 204 207 205 202 198 195 196 198 200 203 204 203 205 209 213 218 225 231 237 244 248 252 259 267 272 279 284 288 288 287 285 285 285 286 290 299 307 310 310 311 318 324 328 328 326
203 200 200 200 201 202 203 205 205 206 207 208 209 210 209 207 207 206 206 207 208 207 207 207 208 209 208 207 208 209 208 208 208 207 207 209 209 209 208 209 214 220 220 213 205 204 205 207 210 213 215 216 218 218 219 222 227 233 241 247 252 255 258 264 270 275 278 280 280 281 282 283 284 290 300 310 315 313 309 309 312 314 311 311 314
205 203 202 202 203 204 205 206 207 207 208 210 210 212 213 213 211 210 209 208 208 208 210 211 211 212 212 211 210 210 210 211 213 215 214 214 214 213 211 214 219 223 225 222 215 213 213 212 215 219 223 225 227 227 227 230 232 236 243 249 254 259 263 268 274 277 278 279 281 285 287 289 292 297 303 309 310 308 305 305 307 306 304 305 311
206 205 205 205 207 208 209 210 210 209 209 210 211 212 214 215 216 216 214 211 210 210 212 213 214 215 215 215 214 212 212 214 216 220 220 220 221 220 218 219 221 224 227 227 224 223 224 223 223 225 228 229 229 230 231 235 239 241 245 249 254 260 264 269 272 274 277 281 286 292 295 297 298 300 304 309 312 311 310 309 308 305 306 311 316
207 208 208 209 210 212 214 215 215 215 214 213 213 215 216 216 218 219 219 217 215 214 215 216 218 219 220 219 217 216 215 216 219 222 224 225 226 227 226 226 227 227 230 232 232 232 234 235 235 235 236 236 234 233 233 236 241 244 247 250 255 257 261 265 268 271 275 280 284 288 292 295 297 299 303 308 311 313 314 313 310 306 306 311 316
208 209 211 212 213 214 217 219 220 220 219 218 217 218 219 219 220 222 222 222 221 220 220 221 222 223 224 224 222 220 220 220 222 224 225 228 230 232 232 234 234 233 233 233 233 235 238 240 240 241 242 243 243 241 239 240 243 247 250 252 255 259 261 264 266 269 272 275 279 282 285 288 291 294 298 303 307 309 311 312 311 310 310 312 315
206 209 211 213 214 215 218 220 222 223 223 223 223 223 224 224 224 225 227 227 227 226 226 226 227 228 230 230 228 226 224 225 227 228 228 230 232 234 236 237 238 239 238 235 232 233 237 239 241 242 244 245 247 248 246 246 248 251 252 252 254 259 263 265 267 268 269 272 275 279 281 284 288 291 295 298 300 301 302 302 303 306 308 311 314
204 207 210 212 214 215 217 220 223 225 226 227 227 227 227 227 227 227 228 229 230 231 231 231 231 232 233 236 236 234 231 230 231 232 232 232 234 236 238 239 240 241 242 240 237 235 236 240 242 242 245 246 248 250 251 251 252 253 253 254 254 256 260 263 266 268 269 272 275 277 279 281 283 286 289 293 296 297 297 297 297 299 301 304 307
204 205 207 210 212 213 214 216 219 222 224 226 228 228 227 227 228 228 228 229 230 232 234 235 234 234 235 237 239 239 237 235 235 235 235 235 236 238 240 241 241 242 244 245 245 242 240 241 243 244 247 249 252 254 254 253 252 252 253 253 255 257 259 262 264 266 269 271 273 274 275 278 281 283 285 288 290 292 294 295 296 298 300 301 302
205 206 206 207 209 210 210 211 212 215 218 221 223 225 225 226 227 228 229 230 231 232 234 235 236 235 235 236 238 240 240 240 238 238 237 238 239 240 242 243 243 245 247 248 249 249 248 246 246 247 248 251 254 255 256 255 253 253 252 252 254 256 257 260 263 265 267 269 270 270 271 273 276 279 282 285 287 289 291 292 293 294 296 298 299
206 207 207 207 209 210 209 209 209 211 214 217 220 222 222 223 224 227 229 230 231 231 231 233 234 234 234 234 235 237 240 241 240 239 238 239 240 241 243 244 245 247 248 250 251 252 253 252 250 249 249 250 253 255 256 257 256 255 254 252 252 252 253 255 258 260 263 264 266 267 269 271 272 276 280 283 285 287 290 291 291 291 290 291 292
207 207 208 208 209 211 212 211 211 212 214 217 221 222 223 224 224 227 229 230 231 230 229 230 231 231 232 232 233 234 237 240 241 240 239 239 239 241 244 245 246 247 248 249 251 251 253 254 253 252 251 250 251 254 256 257 258 258 258 257 255 252 251 252 253 255 258 261 264 266 268 270 272 275 277 279 283 286 288 290 291 291 290 289 288
206 204 207 208 210 212 215 215 216 216 217 220 223 225 228 229 229 229 230 232 233 232 231 232 232 233 233 233 232 232 234 237 239 240 240 240 240 242 244 246 247 248 248 248 250 252 253 255 256 256 255 253 252 253 255 257 258 258 259 259 259 257 255 254 253 254 255 257 259 262 264 267 270 273 275 277 280 283 285 288 289 290 289 289 288
201 201 204 207 210 213 215 218 219 220 221 224 227 231 234 236 237 236 234 234 236 236 235 234 235 236 237 238 238 236 236 237 238 239 239 239 240 241 243 246 247 249 250 251 252 253 254 255 256 256 256 255 254 254 255 256 257 258 258 258 259 259 258 256 254 253 252 251 252 255 258 262 265 268 271 274 278 282 285 286 288 289 289 288 287
196 201 206 209 213 216 217 219 220 221 224 227 230 234 237 240 243 243 240 238 238 239 239 238 238 238 240 243 244 243 243 243 241 242 241 239 239 241 243 245 248 250 251 253 254 253 252 251 252 253 254 254 253 253 254 256 257 258 258 257 258 258 258 256 254 253 251 248 247 249 252 257 261 265 269 274 280 284 284 286 289 291 291 291 290
191 198 203 207 209 213 216 217 218 220 222 226 229 234 238 241 243 246 245 242 239 239 242 243 243 241 240 241 242 242 245 248 246 245 248 247 244 243 245 245 246 247 247 248 250 252 253 253 252 251 252 252 252 253 254 256 257 258 258 258 258 257 256 254 251 250 249 249 249 249 251 256 261 264 266 270 274 276 277 280 285 288 289 290 291
184 192 197 199 197 199 206 211 214 218 222 226 230 233 237 240 242 244 246 246 242 239 240 244 246 245 244 243 243 241 241 246 249 246 247 251 250 246 245 243 241 241 240 237 239 245 251 252 251 252 253 254 254 254 255 256 258 258 258 258 257 256 255 253 250 249 249 252 255 256 257 260 263 262 262 264 270 276 277 276 279 283 284 285 286
179 181 184 187 187 185 190 199 206 213 218 223 228 230 234 239 241 243 245 246 243 239 238 241 244 245 246 246 245 242 239 244 251 246 239 241 246 246 246 244 242 242 242 238 235 239 245 248 250 253 256 256 256 256 256 256 257 258 259 259 258 256 255 255 254 253 254 256 259 261 263 265 267 267 268 269 273 277 279 279 280 282 281 280 280
202 197 193 192 191 189 188 191 198 206 212 217 221 224 229 234 240 244 245 245 244 241 239 241 242 242 243 243 242 241 240 243 249 245 236 234 236 238 241 242 241 241 244 243 241 242 246 248 249 251 254 255 257 258 259 259 260 261 261 261 261 260 259 258 257 258 259 260 262 264 266 268 272 274 275 276 276 276 278 281 283 283 281 279 278
208 211 214 213 208 203 201 202 204 208 212 215 217 222 228 234 239 242 245 246 245 243 242 243 243 241 240 240 239 239 238 239 243 242 237 235 233 232 233 235 236 238 240 241 242 245 247 247 248 250 253 255 257 258 259 260 261 264 265 264 264 263 262 261 261 262 263 265 267 269 271 274 277 278 278 279 278 278 279 282 283 283 282 281 279
205 211 215 216 217 215 213 215 216 216 218 219 221 225 230 236 241 243 247 252 252 248 245 244 244 243 241 238 236 237 237 238 239 239 237 238 236 233 232 232 232 235 238 238 240 244 247 248 250 253 256 258 258 258 258 258 259 262 264 265 265 264 263 263 263 264 266 267 270 272 274 276 277 276 277 277 277 277 279 281 283 283 281 279 277
210 219 224 225 227 228 226 225 223 221 220 218 220 227 234 242 248 247 248 256 259 254 248 244 242 242 240 236 234 235 238 239 241 241 239 239 239 236 236 236 237 238 240 241 243 246 248 250 251 253 256 258 259 259 258 259 260 263 264 264 263 263 263 263 263 263 265 267 270 271 273 274 275 276 277 278 279 281 281 282 285 286 283 278 273
225 232 239 239 238 241 242 240 236 234 235 235 236 242 247 250 251 248 248 257 265 262 256 248 240 235 234 234 234 236 239 240 242 242 241 240 237 236 237 239 240 241 243 245 249 252 253 253 253 254 256 257 259 260 259 260 263 265 267 266 264 263 263 262 262 262 263 266 268 270 271 272 273 275 275 277 280 281 281 284 286 285 281 278 273
235 243 250 249 249 251 251 251 247 239 237 237 238 242 246 249 252 252 248 252 265 265 258 253 240 230 229 232 235 237 238 239 238 239 239 238 236 238 241 241 241 242 244 246 250 254 257 258 256 256 257 258 259 260 260 261 263 265 268 268 266 266 265 264 264 263 263 265 266 268 269 270 271 272 272 274 276 277 280 284 284 279 277 278 277
239 246 251 254 258 257 253 252 251 245 240 240 241 244 250 256 260 259 255 258 273 280 271 255 234 221 219 225 232 235 235 234 232 232 234 236 238 245 250 248 244 243 244 245 248 252 256 258 257 257 258 258 259 260 261 261 262 264 267 267 267 268 268 268 268 268 268 267 267 267 268 269 270 271 271 272 272 274 278 281 281 282 282 280 279
245 247 250 256 259 257 252 250 249 247 244 243 245 250 256 259 258 256 258 264 267 264 257 243 226 218 217 223 231 234 228 225 223 222 225 231 237 244 250 250 247 244 242 243 246 250 255 259 260 261 261 261 260 260 261 261 262 263 265 266 268 269 269 269 270 270 271 271 271 271 270 271 272 272 272 272 272 273 275 275 280 289 285 273 270
246 245 248 254 255 254 253 251 251 253 252 249 252 257 260 258 256 255 256 257 249 240 236 231 223 222 223 223 225 225 222 223 227 226 225 229 234 238 242 246 247 247 246 246 249 252 256 260 262 263 263 263 263 263 264 264 264 264 265 267 268 269 269 269 270 270 271 272 273 273 273 274 275 275 275 275 274 274 274 273 280 287 279 269 276
237 239 246 252 251 252 255 256 256 257 258 258 259 258 256 253 253 253 250 243 237 233 231 227 225 225 225 226 231 235 230 231 236 237 234 235 238 241 244 246 247 249 250 251 252 253 255 258 260 262 264 264 266 267 268 268 267 266 265 266 267 268 269 270 271 271 272 273 273 273 272 273 274 274 276 276 275 274 272 271 277 282 278 278 287
239 240 252 261 258 255 257 258 257 254 254 255 253 246 244 247 248 248 243 235 229 227 227 231 234 236 236 238 243 244 239 235 239 243 243 242 243 245 248 251 254 256 257 256 255 254 255 257 260 263 265 266 267 268 268 268 268 268 268 267 267 268 269 270 271 272 273 273 273 272 271 270 271 272 273 275 275 274 272 270 270 270 267 266 267
253 253 260 269 270 264 260 260 260 257 256 256 251 239 234 237 241 243 243 238 233 232 237 243 245 244 244 245 246 246 245 243 243 246 248 250 250 251 253 256 259 261 261 260 259 258 258 260 261 263 264 265 266 266 266 267 267 268 269 269 269 269 269 269 270 270 271 271 272 272 272 271 271 271 272 273 273 273 272 271 267 263 261 262 265
261 261 262 267 270 266 260 257 257 256 255 253 250 245 237 233 236 241 244 244 242 241 245 249 251 250 250 251 251 252 253 253 252 252 252 253 253 254 256 257 258 259 260 261 261 261 262 263 264 265 265 265 265 265 265 266 267 267 268 269 269 269 269 269 269 269 269 269 269 270 271 272 272 271 271 272 272 272 272 272 270 267 266 268 273
257 258 260 264 265 262 257 254 252 251 250 248 247 246 243 239 240 242 245 248 249 249 249 251 252 252 252 252 253 254 255 256 258 258 258 258 258 258 259 259 259 260 261 262 262 263 263 263 264 265 266 267 267 267 267 267 268 268 269 269 269 269 269 269 269 269 270 269 269 269 270 270 271 271 271 271 272 273 273 273 273 273 273 273 275
252 252 255 260 261 258 255 251 249 246 245 245 244 244 243 241 240 241 243 245 247 249 251 252 253 253 253 253 254 254 255 257 259 260 261 262 263 263 263 263 264 264 264 264 265 265 265 266 266 266 267 267 267 268 268 268 268 268 268 268 269 268 268 269 269 270 270 271 271 271 271 271 271 271 271 271 271 272 273 273 274 274 275 276 277
248 245 249 254 257 255 251 248 246 244 243 243 244 243 243 243 243 243 244 246 248 251 253 255 257 258 258 259 259 259 259 260 260 261 263 264 265 265 266 267 267 268 268 268 267 267 267 267 268 268 268 268 268 268 268 267 267 267 267 268 268 269 269 269 270 270 270 271 271 271 271 271 271 271 271 271 271 271 271 272 273 273 274 275 276
Height
5915 5916 5917 5918 5920 5921 5922 5923 5923 5924 5924 5924 5925 5925 5925 5925 5926 5927 5928 5928 5929 5930 5930 5931 5932 5932 5933 5933 5933 5934 5935 5935 5936 5936 5937 5938 5938 5939 5940 5941 5941 5941 5942 5943 5944 5944 5945 5945 5946 5946 5947 5947 5947 5948 5949 5949 5949 5950 5950 5950 5950 5951 5951 5951 5951 5952 5952 5953 5953 5954 5954 5955 5955 5956 5956 5956 5956 5956 5956 5956 5956 5955 5955 5954 5954
5915 5916 5917 5918 5919 5921 5922 5923 5923 5924 5924 5925 5925 5925 5926 5926 5927 5927 5928 5929 5929 5930 5931 5932 5932 5933 5934 5934 5934 5935 5936 5936 5937 5937 5938 5938 5939 5940 5941 5941 5941 5942 5942 5943 5944 5945 5945 5946 5946 5947 5947 5948 5948 5949 5949 5950 5950 5950 5950 5951 5951 5951 5952 5952 5952 5952 5953 5953 5954 5954 5955 5955 5956 5956 5956 5956 5956 5956 5956 5956 5955 5955 5954 5954 5953
5915 5915 5916 5918 5919 5921 5922 5923 5924 5924 5925 5925 5926 5926 5926 5927 5927 5928 5929 5929 5930 5930 5931 5932 5933 5934 5934 5935 5935 5936 5936 5937 5938 5938 5939 5939 5940 5941 5941 5942 5942 5942 5943 5944 5944 5945 5946 5946 5947 5948 5948 5948 5949 5949 5950 5950 5951 5951 5951 5951 5952 5952 5952 5953 5953 5953 5953 5953 5953 5954 5954 5955 5955 5956 5956 5956 5956 5956 5956 5955 5955 5955 5954 5954 5953
5914 5914 5916 5918 5919 5921 5922 5923 5924 5924 5925 5926 5926 5927 5927 5927 5928 5928 5929 5930 5930 5931 5931 5932 5933 5934 5934 5935 5936 5937 5937 5938 5938 5939 5939 5940 5941 5942 5942 5942 5943 5943 5943 5944 5945 5945 5946 5947 5947 5948 5948 5949 5949 5950 5950 5951 5951 5951 5951 5952 5952 5953 5953 5953 5953 5954 5954 5954 5954 5954 5954 5955 5955 5955 5956 5956 5955 5955 5955 5955 5955 5954 5954 5953 5953
5913 5913 5914 5917 5919 5921 5922 5923 5923 5924 5925 5926 5926 5927 5928 5928 5928 5929 5930 5930 5931 5931 5932 5933 5934 5934 5935 5936 5937 5938 5938 5939 5939 5940 5940 5941 5942 5942 5943 5943 5943 5944 5944 5945 5945 5946 5946 5947 5947 5948 5948 5949 5949 5950 5950 5951 5951 5951 5952 5952 5953 5953 5954 5954 5954 5954 5954 5955 5955 5955 5955 5955 5955 5955 5956 5956 5955 5955 5955 5955 5954 5954 5953 5953 5953
5912 5913 5913 5916 5918 5920 5922 5922 5923 5924 5925 5926 5926 5927 5928 5929 5929 5930 5930 5931 5932 5932 5933 5934 5935 5935 5936 5937 5938 5939 5939 5940 5940 5941 5941 5941 5942 5943 5944 5944 5944 5944 5945 5945 5945 5946 5946 5947 5947 5948 5948 5949 5950 5950 5951 5951 5951 5952 5952 5952 5953 5954 5954 5954 5954 5954 5955 5955 5955 5955 5955 5955 5955 5955 5956 5956 5956 5955 5955 5955 5954 5954 5953 5953 5953
5912 5913 5913 5915 5917 5919 5921 5922 5923 5924 5925 5926 5926 5927 5928 5929 5929 5930 5931 5931 5932 5933 5934 5935 5935 5936 5937 5937 5938 5939 5940 5940 5941 5941 5941 5942 5943 5944 5944 5945 5945 5945 5945 5946 5946 5946 5947 5947 5948 5948 5949 5949 5950 5951 5951 5952 5952 5952 5952 5953 5953 5954 5954 5955 5955 5955 5955 5955 5955 5956 5956 5956 5956 5956 5956 5956 5955 5955 5955 5954 5954 5954 5953 5953 5952
5911 5912 5913 5914 5916 5918 5920 5921 5922 5924 5924 5925 5926 5927 5927 5929 5930 5930 5931 5932 5933 5934 5935 5935 5936 5937 5937 5938 5939 5939 5940 5941 5941 5941 5942 5943 5944 5944 5945 5945 5946 5946 5946 5946 5947 5947 5947 5948 5948 5949 5949 5950 5950 5951 5952 5952 5952 5953 5953 5953 5954 5954 5955 5955 5955 5955 5955 5955 5956 5956 5956 5956 5956 5955 5955 5955 5955 5955 5955 5954 5954 5954 5953 5953 5952
5910 5911 5912 5913 5915 5917 5919 5921 5922 5923 5924 5924 5925 5926 5927 5928 5929 5930 5931 5932 5933 5934 5935 5936 5937 5937 5938 5938 5939 5940 5941 5941 5941 5942 5943 5943 5944 5945 5945 5946 5946 5946 5947 5947 5947 5948 5948 5948 5949 5949 5949 5950 5951 5951 5952 5952 5953 5953 5953 5954 5954 5954 5955 5955 5955 5955 5955 5955 5956 5956 5956 5956 5955 5955 5955 5955 5955 5954 5954 5954 5954 5953 5953 5953 5952
5910 5910 5911 5912 5914 5916 5918 5920 5921 5922 5923 5924 5925 5926 5927 5928 5929 5930 5931 5932 5933 5934 5935 5936 5937 5938 5938 5939 5940 5941 5941 5942 5942 5943 5943 5944 5945 5945 5946 5946 5946 5947 5947 5948 5948 5948 5949 5949 5949 5950 5950 5950 5951 5951 5952 5952 5953 5953 5953 5954 5954 5955 5955 5955 5955 5955 5955 5955 5956 5956 5956 5956 5955 5955 5955 5955 5955 5954 5954 5954 5954 5953 5953 5953 5952
5909 5909 5910 5912 5914 5916 5917 5919 5920 5921 5923 5924 5924 5925 5927 5928 5928 5929 5931 5932 5933 5934 5935 5936 5937 5938 5939 5940 5941 5941 5942 5942 5943 5944 5944 5945 5945 5946 5946 5947 5947 5947 5947 5948 5949 5949 5950 5950 5950 5950 5950 5951 5951 5952 5952 5952 5953 5953 5953 5954 5954 5955 5955 5955 5955 5955 5955 5955 5955 5956 5956 5956 5955 5955 5955 5955 5955 5954 5954 5954 5953 5953 5953 5952 5952
5907 5908 5909 5912 5914 5916 5917 5918 5920 5921 5922 5923 5924 5925 5926 5927 5929 5930 5930 5931 5932 5934 5935 5936 5937 5938 5939 5940 5941 5941 5942 5942 5943 5944 5945 5945 5946 5946 5946 5947 5948 5948 5948 5949 5949 5949 5950 5950 5951 5951 5951 5951 5952 5952 5952 5952 5953 5953 5953 5954 5954 5954 5955 5955 5955 5955 5955 5955 5956 5956 5956 5955 5955 5955 5955 5955 5955 5954 5954 5954 5953 5953 5952 5952 5952
5905 5907 5908 5911 5914 5915 5916 5918 5919 5920 5921 5922 5924 5925 5926 5927 5928 5929 5930 5931 5932 5933 5935 5936 5937 5938 5939 5940 5941 5941 5942 5943 5943 5944 5945 5946 5946 5946 5947 5947 5948 5948 5948 5949 5949 5949 5950 5951 5951 5951 5952 5952 5952 5952 5952 5952 5953 5953 5953 5953 5954 5954 5954 5955 5955 5955 5955 5955 5956 5956 5956 5955 5955 5955 5955 5955 5955 5954 5954 5954 5953 5953 5952 5952 5951
5903 5905 5907 5910 5912 5914 5915 5917 5918 5919 5919 5921 5922 5924 5925 5927 5928 5929 5930 5930 5931 5932 5934 5935 5936 5937 5938 5939 5940 5941 5942 5943 5943 5944 5945 5945 5946 5947 5947 5947 5948 5948 5949 5949 5950 5950 5950 5950 5951 5951 5952 5952 5952 5952 5952 5952 5953 5953 5953 5953 5954 5954 5954 5954 5955 5955 5955 5955 5955 5955 5955 5955 5955 5955 5955 5954 5954 5954 5954 5953 5953 5952 5952 5951 5951
5900 5903 5905 5908 5910 5912 5914 5915 5916 5917 5918 5920 5921 5923 5925 5926 5927 5928 5929 5929 5930 5931 5932 5934 5935 5936 5937 5938 5939 5940 5941 5942 5943 5943 5944 5945 5945 5946 5947 5947 5948 5948 5949 5950 5950 5950 5950 5950 5951 5951 5952 5952 5952 5952 5952 5952 5952 5953 5953 5953 5954 5954 5954 5954 5954 5954 5954 5954 5954 5955 5955 5955 5954 5954 5954 5954 5954 5953 5953 5953 5953 5952 5952 5951 5950
5898 5901 5903 5906 5908 5910 5912 5913 5915 5916 5917 5918 5920 5921 5923 5924 5926 5927 5928 5928 5929 5930 5931 5933 5934 5935 5936 5937 5938 5939 5940 5941 5942 5943 5944 5944 5945 5945 5946 5947 5947 5948 5949 5949 5950 5950 5950 5950 5951 5951 5951 5952 5952 5952 5952 5952 5952 5952 5953 5953 5953 5953 5953 5954 5954 5954 5954 5954 5954 5954 5954 5954 5953 5953 5953 5953 5953 5953 5953 5952 5952 5952 5951 5951 5950
5895 5899 5902 5904 5906 5908 5910 5912 5913 5915 5916 5917 5918 5919 5921 5923 5924 5925 5926 5928 5928 5929 5930 5931 5932 5933 5934 5935 5937 5938 5939 5940 5941 5942 5943 5944 5944 5945 5945 5946 5947 5948 5948 5949 5949 5949 5950 5950 5950 5951 5951 5951 5951 5951 5951 5951 5952 5952 5952 5952 5952 5953 5953 5953 5953 5953 5953 5953 5953 5953 5953 5953 5953 5952 5952 5952 5952 5952 5952 5952 5951 5951 5951 5950 5950
5893 5896 5899 5901 5903 5906 5908 5910 5912 5913 5915 5916 5917 5918 5919 5921 5922 5924 5925 5926 5927 5928 5929 5930 5931 5932 5933 5934 5935 5936 5938 5939 5940 5941 5942 5943 5943 5944 5945 5945 5946 5947 5947 5948 5948 5949 5949 5949 5949 5950 5950 5950 5950 5951 5951 5951 5951 5951 5951 5951 5951 5952 5952 5952 5952 5952 5952 5952 5952 5952 5952 5951 5951 5951 5951 5951 5951 5951 5951 5951 5951 5951 5950 5950 5950
5891 5893 5896 5899 5901 5904 5906 5907 5909 5911 5913 5914 5916 5917 5918 5919 5921 5922 5923 5924 5926 5927 5928 5929 5930 5931 5932 5933 5934 5936 5937 5938 5939 5940 5941 5942 5942 5943 5944 5944 5945 5946 5947 5947 5947 5948 5948 5948 5948 5949 5949 5949 5949 5950 5950 5950 5950 5950 5950 5950 5950 5951 5951 5951 5951 5951 5951 5951 5951 5951 5951 5951 5951 5951 5951 5951 5951 5951 5951 5951 5950 5950 5950 5949 5949
5888 5891 5895 5898 5900 5902 5903 5905 5907 5909 5910 5912 5914 5916 5917 5919 5920 5921 5922 5923 5925 5926 5927 5928 5930 5931 5932 5933 5934 5935 5936 5937 5938 5939 5940 5941 5941 5942 5942 5943 5944 5945 5945 5946 5946 5947 5947 5947 5948 5948 5948 5948 5948 5949 5949 5949 5949 5949 5949 5949 5949 5949 5950 5950 5950 5950 5950 5950 5950 5950 5950 5950 5950 5950 5950 5950 5950 5950 5950 5950 5949 5949 5949 5949 5948
5887 5890 5893 5896 5898 5900 5902 5903 5905 5906 5908 5910 5913 5915 5916 5918 5920 5921 5922 5923 5924 5925 5926 5927 5928 5930 5931 5932 5933 5934 5935 5936 5937 5938 5939 5940 5940 5940 5941 5942 5942 5943 5944 5945 5945 5946 5946 5947 5947 5947 5947 5947 5947 5947 5948 5948 5948 5948 5948 5948 5948 5948 5948 5949 5949 5949 5949 5949 5949 5949 5949 5949 5949 5949 5949 5949 5949 5949 5949 5949 5948 5948 5948 5948 5947
5885 5888 5891 5894 5896 5898 5900 5901 5903 5905 5907 5909 5912 5913 5916 5918 5919 5920 5921 5922 5923 5924 5925 5926 5927 5928 5929 5930 5932 5933 5934 5935 5936 5937 5938 5938 5939 5939 5940 5940 5941 5942 5942 5943 5944 5944 5945 5945 5945 5945 5946 5946 5946 5946 5946 5947 5947 5947 5947 5947 5947 5947 5947 5947 5947 5948 5948 5948 5948 5948 5948 5948 5948 5948 5948 5948 5948 5948 5948 5948 5947 5947 5947 5947 5946
5882 5886 5889 5892 5894 5896 5898 5900 5902 5904 5906 5908 5910 5912 5914 5916 5918 5920 5921 5922 5922 5923 5924 5925 5926 5927 5928 5929 5930 5931 5933 5933 5934 5935 5936 5937 5938 5939 5939 5940 5940 5941 5941 5941 5942 5942 5943 5943 5943 5944 5944 5944 5945 5945 5945 5945 5945 5946 5946 5946 5946 5946 5946 5946 5946 5946 5947 5947 5947 5947 5947 5947 5947 5947 5947 5947 5947 5947 5947 5947 5947 5946 5946 5946 5946
5878 5882 5885 5888 5891 5893 5895 5898 5900 5902 5904 5907 5909 5911 5913 5915 5917 5918 5920 5921 5922 5923 5923 5924 5925 5926 5927 5928 5929 5930 5931 5932 5932 5933 5934 5936 5937 5937 5938 5939 5939 5940 5939 5940 5940 5940 5940 5941 5941 5942 5942 5942 5943 5943 5943 5943 5944 5944 5944 5944 5945 5945 5945 5945 5945 5945 5945 5945 5946 5946 5945 5945 5946 5946 5946 5946 5946 5946 5946 5946 5946 5946 5945 5945 5945
5874 5878 5881 5885 5888 5890 5893 5896 5898 5900 5902 5905 5907 5909 5911 5913 5914 5916 5917 5919 5920 5921 5922 5923 5924 5925 5926 5927 5929 5930 5930 5931 5931 5932 5933 5934 5935 5936 5937 5937 5938 5938 5938 5939 5939 5938 5938 5939 5939 5940 5940 5940 5941 5941 5941 5941 5942 5942 5942 5943 5943 5943 5943 5944 5944 5944 5944 5944 5944 5944 5944 5944 5944 5944 5944 5945 5945 5945 5945 5945 5945 5945 5944 5944 5944
5871 5874 5877 5881 5884 5887 5890 5893 5896 5898 5900 5902 5904 5906 5908 5909 5911 5912 5914 5915 5917 5918 5919 5921 5922 5923 5925 5926 5927 5928 5929 5930 5930 5931 5932 5933 5934 5935 5935 5936 5936 5937 5937 5937 5937 5937 5937 5937 5938 5938 5938 5939 5939 5939 5939 5940 5940 5940 5940 5941 5941 5941 5942 5942 5942 5942 5942 5943 5943 5943 5943 5943 5943 5943 5943 5943 5943 5943 5943 5943 5943 5943 5943 5943 5942
5869 5871 5874 5877 5880 5883 5886 5889 5892 5894 5896 5898 5900 5902 5904 5906 5908 5909 5911 5912 5913 5915 5916 5918 5919 5921 5922 5923 5925 5926 5927 5927 5928 5929 5930 5931 5932 5933 5934 5934 5934 5935 5935 5935 5935 5936 5936 5936 5936 5936 5936 5937 5937 5938 5938 5938 5938 5938 5938 5939 5939 5939 5939 5940 5940 5940 5940 5940 5941 5941 5941 5941 5941 5941 5941 5941 5941 5941 5941 5941 5941 5941 5941 5941 5941
5867 5869 5871 5874 5877 5880 5883 5886 5889 5891 5893 5895 5897 5899 5901 5903 5904 5905 5907 5908 5909 5911 5913 5914 5916 5917 5918 5919 5921 5922 5923 5924 5925 5926 5928 5929 5930 5930 5931 5931 5932 5932 5932 5933 5933 5933 5934 5934 5934 5934 5934 5935 5935 5935 5936 5936 5937 5937 5937 5937 5937 5937 5937 5937 5937 5937 5938 5938 5938 5938 5938 5939 5939 5939 5939 5939 5939 5939 5939 5939 5939 5939 5939 5939 5939
5864 5867 5869 5872 5875 5878 5881 5883 5886 5888 5890 5893 5895 5896 5898 5900 5901 5902 5904 5905 5906 5908 5909 5911 5912 5914 5914 5915 5916 5917 5919 5920 5921 5922 5924 5925 5926 5927 5927 5928 5929 5929 5929 5930 5930 5931 5931 5932 5932 5932 5932 5932 5933 5933 5933 5934 5935 5935 5935 5935 5935 5935 5935 5935 5935 5935 5935 5935 5936 5936 5936 5936 5936 5936 5936 5936 5936 5936 5936 5936 5936 5936 5936 5936 5936
5860 5863 5866 5870 5873 5876 5878 5881 5883 5885 5888 5890 5892 5894 5896 5897 5899 5900 5901 5902 5904 5905 5907 5908 5909 5910 5910 5911 5912 5913 5914 5916 5917 5919 5920 5921 5922 5923 5924 5925 5925 5926 5926 5927 5928 5929 5929 5929 5930 5930 5930 5930 5930 5930 5931 5931 5932 5933 5933 5934 5933 5933 5933 5933 5933 5933 5933 5933 5933 5933 5934 5934 5934 5934 5934 5934 5934 5934 5934 5934 5934 5934 5934 5933 5933
5858 5861 5864 5867 5870 5873 5876 5878 5880 5883 5885 5887 5889 5891 5892 5894 5895 5897 5899 5900 5901 5902 5904 5905 5906 5907 5907 5908 5909 5910 5911 5913 5914 5915 5916 5917 5918 5919 5920 5921 5922 5923 5923 5924 5925 5926 5926 5926 5926 5927 5927 5928 5928 5928 5928 5929 5929 5930 5931 5931 5931 5931 5931 5931 5931 5931 5930 5930 5931 5931 5931 5931 5932 5932 5932 5932 5932 5932 5931 5931 5931 5931 5931 5930 5930
5858 5861 5863 5865 5867 5870 5873 5875 5877 5880 5882 5884 5885 5887 5889 5890 5892 5893 5895 5897 5898 5899 5901 5902 5903 5905 5906 5906 5907 5908 5910 5911 5912 5912 5913 5914 5915 5916 5918 5918 5919 5920 5921 5921 5922 5922 5922 5923 5923 5924 5924 5925 5925 5925 5926 5926 5927 5927 5928 5928 5928 5928 5928 5928 5928 5928 5928 5928 5928 5928 5928 5929 5929 5929 5929 5929 5929 5929 5929 5928 5928 5928 5928 5927 5927
5857 5859 5861 5862 5864 5866 5868 5871 5873 5876 5878 5880 5881 5883 5885 5887 5888 5890 5892 5893 5895 5896 5896 5897 5900 5903 5904 5903 5903 5904 5906 5908 5909 5910 5911 5912 5913 5915 5916 5916 5916 5916 5917 5918 5918 5919 5919 5920 5921 5921 5921 5922 5922 5922 5923 5923 5923 5924 5924 5925 5925 5925 5925 5925 5925 5925 5925 5925 5925 5926 5926 5926 5926 5926 5927 5926 5926 5926 5926 5925 5925 5925 5924 5924 5924
5856 5857 5858 5860 5861 5862 5864 5867 5869 5872 5874 5876 5878 5880 5882 5883 5885 5887 5888 5889 5890 5892 5893 5894 5896 5899 5900 5900 5899 5900 5903 5905 5907 5908 5909 5910 5912 5913 5912 5912 5912 5912 5913 5913 5913 5913 5915 5916 5917 5918 5919 5920 5920 5920 5920 5920 5920 5921 5921 5921 5922 5922 5923 5923 5923 5923 5923 5923 5923 5923 5924 5924 5924 5924 5924 5923 5922 5922 5922 5922 5922 5922 5921 5921 5921
5855 5856 5857 5859 5860 5861 5862 5864 5867 5870 5871 5873 5875 5877 5879 5880 5882 5883 5884 5884 5886 5887 5889 5890 5892 5893 5895 5896 5896 5897 5899 5901 5903 5905 5905 5906 5908 5909 5909 5909 5910 5909 5910 5911 5910 5910 5911 5913 5914 5915 5916 5917 5917 5917 5918 5918 5918 5918 5918 5918 5919 5919 5920 5920 5920 5920 5920 5920 5920 5920 5921 5921 5921 5921 5921 5920 5919 5919 5918 5918 5918 5918 5918 5918 5918
5853 5854 5855 5857 5859 5860 5861 5863 5866 5868 5869 5871 5873 5874 5876 5878 5879 5880 5880 5881 5882 5882 5884 5885 5886 5888 5890 5890 5892 5893 5894 5896 5898 5900 5900 5901 5903 5904 5904 5906 5907 5906 5906 5908 5909 5909 5909 5910 5911 5912 5912 5913 5913 5914 5914 5915 5915 5915 5916 5916 5916 5917 5917 5917 5917 5917 5917 5917 5917 5917 5917 5917 5918 5918 5917 5917 5916 5915 5914 5914 5914 5914 5914 5914 5913
5850 5851 5853 5855 5857 5858 5860 5862 5864 5866 5867 5869 5870 5872 5873 5874 5876 5876 5876 5877 5877 5878 5879 5880 5881 5883 5884 5885 5888 5889 5889 5891 5893 5894 5895 5896 5897 5899 5900 5901 5901 5901 5902 5904 5905 5906 5906 5907 5908 5908 5909 5909 5910 5911 5911 5911 5912 5912 5912 5913 5914 5914 5914 5914 5914 5913 5913 5913 5913 5912 5912 5913 5913 5913 5912 5912 5912 5911 5911 5910 5909 5909 5909 5909 5909
5847 5850 5852 5853 5855 5857 5859 5861 5863 5864 5865 5866 5867 5868 5869 5871 5872 5872 5873 5873 5873 5873 5874 5875 5876 5876 5877 5880 5883 5883 5884 5886 5888 5889 5890 5891 5892 5894 5895 5896 5896 5896 5898 5900 5901 5902 5903 5904 5904 5905 5905 5906 5907 5907 5908 5908 5908 5908 5908 5909 5909 5910 5910 5910 5910 5910 5909 5909 5909 5909 5909 5909 5909 5909 5908 5907 5907 5907 5907 5906 5904 5903 5903 5903 5903
5845 5848 5850 5852 5854 5856 5857 5859 5861 5862 5862 5863 5864 5865 5866 5867 5868 5869 5869 5869 5869 5870 5870 5870 5870 5870 5871 5873 5876 5877 5879 5882 5884 5884 5885 5887 5889 5890 5891 5892 5892 5892 5894 5896 5897 5899 5900 5900 5901 5901 5901 5902 5903 5903 5904 5904 5904 5904 5904 5905 5905 5905 5905 5905 5905 5905 5905 5904 5904 5904 5905 5905 5904 5905 5904 5903 5902 5901 5902 5901 5899 5897 5897 5896 5896
5844 5846 5848 5850 5852 5854 5856 5857 5859 5860 5860 5861 5862 5863 5863 5864 5865 5866 5867 5866 5866 5867 5867 5866 5865 5865 5866 5868 5870 5873 5875 5877 5879 5880 5881 5882 5883 5885 5886 5888 5888 5889 5890 5893 5894 5896 5896 5896 5896 5896 5897 5897 5898 5898 5899 5899 5900 5900 5900 5901 5901 5901 5900 5900 5900 5900 5900 5899 5899 5899 5899 5899 5899 5899 5899 5898 5897 5895 5896 5896 5895 5892 5890 5889 5889
5843 5845 5846 5848 5850 5851 5853 5854 5856 5858 5858 5858 5859 5860 5861 5862 5862 5863 5864 5864 5865 5866 5865 5864 5863 5863 5863 5865 5867 5869 5870 5872 5873 5874 5875 5877 5878 5881 5883 5884 5885 5885 5887 5890 5891 5892 5892 5892 5892 5892 5893 5893 5894 5894 5895 5895 5896 5896 5896 5896 5896 5896 5896 5896 5895 5895 5895 5895 5895 5894 5894 5894 5894 5894 5894 5894 5892 5891 5891 5891 5891 5889 5887 5884 5883
5842 5843 5845 5846 5847 5849 5850 5851 5853 5855 5856 5856 5857 5858 5858 5859 5860 5862 5862 5862 5864 5865 5864 5864 5863 5863 5863 5864 5864 5864 5865 5866 5867 5869 5870 5873 5876 5878 5880 5881 5881 5882 5884 5886 5887 5887 5887 5887 5887 5888 5889 5889 5890 5891 5891 5891 5892 5892 5892 5892 5892 5892 5892 5892 5891 5891 5891 5891 5890 5890 5889 5889 5889 5889 5888 5888 5887 5887 5887 5887 5886 5885 5884 5882 5880
5840 5841 5843 5844 5845 5846 5848 5849 5850 5851 5852 5852 5853 5855 5856 5857 5858 5860 5860 5860 5862 5863 5862 5861 5862 5862 5862 5862 5862 5862 5862 5863 5864 5866 5868 5871 5874 5875 5875 5876 5877 5878 5880 5881 5882 5882 5882 5882 5883 5884 5885 5885 5886 5887 5887 5887 5887 5887 5888 5888 5888 5888 5888 5888 5887 5887 5887 5887 5886 5886 5885 5885 5885 5884 5883 5882 5882 5882 5883 5883 5882 5881 5880 5879 5877
5838 5839 5841 5842 5843 5844 5845 5846 5847 5848 5848 5848 5850 5852 5852 5853 5854 5856 5857 5858 5859 5860 5859 5859 5859 5860 5860 5859 5860 5860 5861 5862 5863 5865 5867 5869 5870 5871 5872 5872 5873 5875 5876 5877 5878 5878 5878 5879 5879 5880 5881 5881 5882 5882 5883 5883 5883 5883 5883 5883 5883 5883 5883 5883 5883 5882 5882 5882 5882 5881 5881 5881 5881 5880 5878 5878 5878 5878 5878 5878 5879 5877 5875 5873 5873
5836 5837 5839 5840 5841 5841 5842 5843 5845 5846 5846 5847 5848 5849 5850 5850 5850 5852 5854 5855 5856 5857 5857 5857 5857 5858 5859 5858 5859 5859 5860 5861 5862 5863 5865 5866 5867 5869 5870 5870 5871 5872 5873 5874 5874 5875 5875 5875 5876 5876 5877 5877 5878 5878 5878 5878 5878 5878 5878 5878 5878 5878 5877 5877 5877 5877 5877 5876 5876 5876 5877 5877 5876 5875 5874 5873 5873 5873 5873 5874 5875 5874 5872 5870 5869
5834 5835 5837 5838 5839 5839 5840 5841 5842 5844 5845 5845 5846 5847 5847 5847 5847 5848 5850 5852 5853 5854 5854 5854 5855 5856 5857 5857 5857 5858 5859 5860 5860 5861 5862 5863 5865 5866 5867 5867 5868 5868 5869 5870 5871 5871 5871 5872 5872 5872 5872 5873 5873 5873 5873 5873 5873 5873 5873 5873 5873 5872 5872 5872 5872 5872 5871 5871 5871 5871 5871 5871 5871 5870 5869 5868 5868 5868 5868 5869 5871 5871 5869 5867 5865
5832 5833 5834 5835 5836 5837 5837 5838 5839 5840 5842 5843 5843 5844 5845 5845 5845 5845 5847 5848 5850 5851 5851 5852 5853 5854 5854 5855 5855 5856 5857 5858 5859 5859 5860 5860 5861 5862 5862 5863 5864 5864 5865 5866 5866 5867 5867 5868 5868 5868 5868 5868 5868 5868 5868 5868 5868 5868 5868 5867 5867 5867 5866 5866 5866 5866 5866 5866 5866 5865 5866 5865 5865 5865 5864 5863 5863 5863 5863 5864 5865 5865 5864 5862 5860
5829 5831 5832 5833 5834 5835 5835 5836 5836 5837 5839 5840 5841 5842 5843 5844 5844 5844 5845 5846 5847 5848 5849 5850 5850 5851 5852 5852 5852 5853 5854 5854 5855 5856 5857 5857 5858 5858 5858 5859 5859 5860 5860 5861 5861 5862 5862 5862 5863 5863 5863 5863 5863 5863 5863 5863 5863 5863 5862 5862 5861 5861 5861 5861 5861 5861 5861 5861 5860 5860 5860 5860 5859 5859 5859 5858 5858 5858 5858 5858 5858 5859 5858 5856 5855
5827 5828 5829 5831 5831 5832 5833 5834 5835 5835 5836 5837 5838 5839 5841 5842 5842 5843 5843 5844 5844 5845 5846 5847 5848 5848 5849 5850 5850 5850 5851 5851 5852 5852 5853 5854 5854 5854 5855 5855 5855 5855 5856 5856 5856 5857 5857 5857 5857 5857 5857 5857 5857 5857 5857 5857 5857 5857 5856 5856 5856 5856 5856 5856 5856 5856 5856 5855 5855 5855 5854 5854 5854 5853 5853 5853 5853 5852 5852 5852 5852 5852 5851 5851 5850
5824 5825 5826 5827 5828 5829 5830 5831 5832 5833 5834 5835 5836 5836 5837 5839 5840 5840 5841 5841 5842 5842 5843 5844 5844 5845 5846 5847 5847 5847 5848 5848 5848 5849 5849 5850 5850 5850 5850 5850 5850 5851 5851 5851 5851 5851 5852 5852 5852 5852 5852 5851 5851 5851 5851 5851 5851 5850 5850 5850 5850 5850 5850 5850 5849 5849 5849 5849 5849 5849 5848 5848 5848 5848 5847 5847 5847 5847 5846 5846 5846 5845 5845 5844 5844
5821 5822 5823 5824 5824 5825 5827 5828 5829 5830 5831 5832 5833 5834 5834 5835 5836 5837 5838 5838 5839 5839 5840 5840 5841 5841 5842 5843 5843 5844 5844 5844 5844 5845 5845 5845 5845 5845 5845 5845 5845 5845 5845 5845 5845 5846 5846 5846 5845 5845 5845 5845 5845 5844 5844 5844 5844 5844 5844 5844 5844 5843 5843 5843 5843 5843 5842 5842 5842 5842 5842 5842 5842 5841 5841 5841 5840 5840 5840 5840 5839 5839 5838 5837 5837